Wind_Speed
39 39 39 40 41 42 41 39 37 36 36 35 35 34 33 33 32 32 29 26 25 24 23 22 21 20 20 20 20 20 21 21 21 21 19 18 17 15 14 13 11 10 9 8 7 6 5 5 5
40 40 40 40 42 42 42 40 39 38 38 38 38 37 36 36 35 34 32 29 28 27 26 25 24 23 22 21 22 22 22 22 22 22 21 21 20 18 16 15 14 12 11 10 9 8 7 7 7
40 40 41 41 41 41 41 40 41 41 41 40 40 40 40 38 37 36 35 33 31 30 29 27 26 25 24 23 23 23 23 23 23 23 23 23 22 21 19 17 16 15 13 12 11 10 9 9 9
39 40 40 41 40 40 41 40 41 42 42 42 42 42 41 40 39 38 38 36 34 33 31 30 29 28 26 25 24 24 24 25 24 24 24 23 23 22 21 20 19 17 16 15 13 12 12 11 11
39 40 40 40 39 40 41 41 40 41 41 42 43 44 43 42 41 41 40 39 38 36 35 33 32 30 29 28 27 26 26 26 26 25 25 24 24 24 23 22 21 20 18 17 16 15 14 13 13
40 40 40 39 39 39 40 40 40 41 41 41 43 44 44 43 43 43 43 42 41 40 38 37 35 33 32 30 29 28 27 27 27 27 26 26 25 25 25 24 23 22 21 19 18 17 16 16 16
40 40 39 39 39 40 40 40 41 41 41 41 42 43 43 44 44 44 44 44 44 43 41 40 39 37 35 34 32 31 29 29 28 28 27 27 27 26 26 26 25 24 23 22 21 20 19 19 18
40 40 39 39 40 41 41 41 42 42 42 42 43 43 44 44 45 45 45 45 45 45 44 43 42 40 38 37 35 34 33 32 30 30 29 29 29 28 28 27 27 26 26 25 24 23 22 21 21
41 41 40 40 40 40 41 42 42 43 44 44 45 45 45 45 45 45 45 45 46 45 46 46 45 43 42 40 39 38 36 35 33 32 32 31 31 30 30 29 29 28 28 27 26 25 25 24 23
40 40 40 40 40 41 41 42 43 43 44 45 46 47 46 46 46 47 47 47 47 47 47 47 46 46 45 43 42 40 39 38 36 35 34 33 32 32 32 32 31 30 30 29 28 28 27 27 26
40 39 39 40 41 41 42 42 43 44 45 46 47 48 48 48 48 48 49 49 49 48 48 48 48 48 47 46 45 44 42 41 39 38 36 35 34 34 34 33 33 33 32 31 31 30 30 29 28
39 39 39 40 40 41 42 43 44 45 46 47 48 48 49 50 50 50 50 50 50 50 50 49 49 49 49 48 47 46 46 44 42 41 40 38 37 36 36 35 35 35 35 34 33 32 32 32 31
39 39 39 39 40 41 41 42 44 45 46 47 48 49 50 50 51 51 51 51 51 52 52 52 51 50 50 50 49 49 48 47 45 44 43 42 40 39 38 37 37 37 37 36 35 35 34 33 32
37 38 38 39 40 40 41 41 42 43 45 46 47 48 49 50 51 51 52 52 52 53 53 53 53 53 52 51 51 51 50 49 48 46 45 44 43 42 41 40 39 39 38 38 38 37 37 36 35
34 34 35 36 37 39 39 39 40 42 43 44 45 46 48 50 51 52 52 53 53 53 54 54 55 55 54 54 53 53 52 51 50 48 48 47 45 44 44 42 41 41 41 40 40 40 39 39 38
30 32 33 34 35 37 38 37 39 40 42 42 43 45 47 48 50 50 51 52 53 53 54 55 56 56 57 56 56 55 54 53 52 50 50 49 47 46 45 43 43 43 43 42 41 41 41 40 39
27 29 30 32 33 34 35 35 37 39 40 40 41 43 44 46 47 48 49 50 52 53 53 54 55 56 57 58 57 56 55 54 53 52 51 50 49 48 47 45 44 44 43 43 42 42 41 41 41
24 25 27 29 30 32 33 34 35 37 37 38 39 40 42 43 45 46 47 49 51 53 53 53 54 54 56 58 59 58 56 55 55 53 51 51 51 50 49 48 47 45 45 44 43 42 42 43 42
21 22 24 26 28 29 30 31 32 34 35 36 36 37 38 40 42 44 45 47 49 51 52 52 52 53 55 56 57 58 58 57 56 55 53 52 53 52 51 50 49 48 46 45 44 44 43 42 43
18 19 20 21 24 25 26 28 29 30 31 32 32 33 34 36 38 40 41 43 46 47 49 49 49 50 52 54 56 56 58 58 57 56 54 53 54 54 52 51 50 49 48 46 45 44 44 44 43
15 16 17 18 19 20 22 23 24 25 25 26 28 29 30 32 33 34 36 39 42 44 45 46 48 48 49 51 52 53 55 57 56 55 55 55 54 54 53 52 51 49 47 46 45 44 44 45 44
13 13 14 15 15 16 17 17 19 19 19 20 22 23 24 26 27 29 31 33 36 39 42 43 45 46 47 48 50 52 52 54 53 53 54 54 54 54 52 51 50 50 49 48 48 47 45 44 44
10 10 11 11 11 11 12 13 14 14 14 15 15 17 18 20 22 24 26 27 30 33 36 39 41 43 44 45 46 47 49 49 50 51 52 53 54 53 52 51 50 49 48 47 48 48 47 45 45
6 7 7 7 6 6 7 8 9 10 11 11 11 12 13 15 15 17 19 21 24 28 31 33 35 38 40 42 43 45 46 46 47 48 49 50 50 50 50 50 49 49 48 47 46 46 47 46 46
3 2 3 3 3 3 3 4 4 5 6 8 8 8 8 9 9 11 12 14 16 20 24 26 29 32 34 36 36 39 42 43 44 45 46 47 48 48 49 49 49 48 48 47 46 47 46 45 44
1 1 1 1 1 0 1 1 1 1 3 3 3 4 5 6 5 6 7 9 11 13 16 19 22 26 29 29 31 33 37 39 41 42 43 44 45 47 47 48 49 48 47 46 45 44 43 44 44
1 1 1 1 1 1 1 1 2 2 2 1 1 2 3 3 4 4 4 5 6 8 11 13 16 19 22 24 27 29 31 35 37 38 39 40 42 42 43 44 45 46 45 45 44 44 45 45 46
2 2 1 2 2 1 2 1 1 2 2 3 2 1 0 1 2 3 4 4 5 6 8 9 11 13 15 18 21 22 24 27 30 32 34 36 36 37 38 39 41 42 43 44 45 45 46 47 47
3 3 2 2 2 2 2 2 2 3 3 3 3 2 2 2 2 3 3 3 4 5 7 8 8 10 12 14 17 21 21 22 23 26 27 29 31 33 34 35 37 38 39 40 42 44 45 46 48
5 5 4 4 3 3 3 4 3 4 4 4 3 2 2 2 2 1 2 2 2 4 4 5 6 8 10 12 14 17 18 18 19 21 22 24 27 28 30 32 33 35 36 38 41 42 44 46 47
Wind_Direction
247 247 246 246 245 245 246 246 246 244 244 243 243 243 242 242 243 244 246 246 248 248 248 249 248 247 246 246 246 246 245 244 245 245 246 247 248 249 248 247 245 245 245 243 241 243 244 244 244
246 246 246 246 246 246 247 246 246 244 244 244 243 243 242 242 243 244 245 245 246 247 247 248 248 248 248 248 248 247 247 246 246 246 246 246 247 248 249 249 248 248 248 246 244 246 245 245 246
246 246 246 247 247 248 248 246 246 245 244 243 243 243 243 242 243 244 245 244 244 245 246 246 247 248 248 249 249 249 248 248 247 247 247 247 247 248 249 250 250 250 250 249 248 248 247 247 247
245 245 246 247 247 247 248 247 246 246 245 244 244 244 243 243 243 243 244 244 243 243 244 245 246 247 248 249 249 249 248 248 248 247 248 248 248 248 248 250 251 251 251 251 251 251 250 249 249
245 245 246 247 247 247 247 247 246 246 245 245 244 245 244 243 243 242 243 243 243 242 243 244 245 246 247 248 248 248 248 248 248 247 247 248 248 249 249 249 250 251 252 252 252 252 252 251 250
244 244 245 246 246 247 247 247 247 246 246 245 245 245 244 243 243 242 242 242 243 242 242 243 244 244 245 246 247 247 248 248 248 248 247 246 248 248 248 249 250 250 252 253 253 253 253 252 252
243 243 244 245 246 246 247 247 247 246 246 246 245 245 244 244 243 242 242 242 242 242 242 242 243 243 244 245 246 247 247 247 248 248 248 247 247 248 249 249 249 251 251 252 252 253 254 254 254
243 244 245 245 246 247 247 248 247 247 247 247 246 246 245 244 244 243 243 242 242 241 242 242 242 242 243 244 245 246 247 247 247 248 249 248 248 248 249 249 249 250 250 251 251 252 254 255 255
242 243 245 246 247 248 248 249 249 249 248 248 248 247 246 245 244 244 243 242 242 241 241 242 242 242 243 244 245 245 246 247 248 248 249 249 248 248 249 249 249 250 251 251 251 251 253 255 255
242 244 245 247 248 249 249 250 250 250 250 249 249 248 247 246 245 244 243 242 242 242 242 242 242 242 243 243 244 245 246 246 247 248 248 248 249 249 249 249 249 251 252 252 252 252 253 254 255
243 245 246 248 249 250 250 251 251 251 250 250 249 249 249 248 246 245 244 243 242 242 242 242 242 243 243 243 243 244 245 245 246 246 247 247 248 249 249 249 250 251 252 252 253 253 253 254 256
243 245 247 249 250 252 252 253 252 252 251 250 251 250 250 249 248 247 245 244 244 243 243 243 243 243 243 243 243 243 244 245 245 246 246 247 247 248 250 249 250 251 252 252 253 253 253 255 257
244 246 248 250 252 253 254 253 252 252 251 251 251 252 251 250 249 248 246 246 245 244 243 243 243 243 243 243 243 243 244 244 245 245 246 247 247 247 249 250 249 251 252 253 254 254 254 255 255
244 246 249 251 252 253 254 254 254 253 252 252 252 252 252 250 248 248 248 247 245 244 244 244 244 244 243 244 244 244 245 244 244 244 245 245 246 247 248 249 249 250 252 253 254 254 254 255 256
243 245 248 250 251 252 253 254 255 254 253 252 252 252 251 250 248 249 249 247 245 245 244 243 243 243 243 244 244 244 244 244 244 244 244 245 246 246 247 248 250 251 252 252 253 254 255 256 257
242 246 248 250 251 252 253 254 255 255 254 253 253 253 252 251 250 249 249 246 245 245 245 245 244 243 243 244 244 243 242 243 243 243 243 244 245 245 245 247 249 250 251 251 253 254 255 255 256
243 247 249 250 252 253 254 254 255 256 255 254 255 254 253 252 251 250 249 246 245 244 245 245 245 244 243 243 243 243 242 241 241 241 243 244 244 245 246 246 248 250 250 250 252 254 255 256 258
247 249 250 252 252 254 255 256 256 256 256 256 256 255 254 252 252 251 249 248 246 245 245 245 245 244 243 243 242 241 240 239 240 240 242 243 244 244 244 245 247 250 250 250 251 253 255 256 257
248 250 252 253 255 256 258 257 257 257 258 258 257 255 254 252 251 251 250 249 247 245 245 245 245 245 244 242 241 241 240 239 239 240 241 242 243 243 244 244 246 248 250 250 249 251 254 256 257
246 249 252 255 257 258 258 259 260 260 260 257 255 254 254 253 252 251 250 250 248 245 245 244 245 245 244 242 241 241 240 239 239 239 239 241 242 243 243 243 246 248 249 249 250 251 253 255 257
246 250 254 257 258 259 259 260 261 260 258 255 255 254 254 253 253 252 251 249 246 244 244 244 243 243 243 242 241 240 239 238 238 238 239 240 241 241 242 242 244 246 247 248 249 250 253 254 256
248 253 257 256 257 262 263 262 258 258 258 256 255 255 255 253 252 252 251 249 246 245 244 244 243 243 243 242 240 240 239 238 238 239 238 239 239 240 240 242 244 245 247 248 248 249 252 255 256
247 251 252 255 259 262 261 261 256 258 258 257 256 255 256 256 256 255 252 250 247 246 244 242 242 242 242 241 240 239 237 237 237 237 238 238 240 241 241 243 244 245 247 249 249 250 251 254 257
247 249 248 250 253 262 267 266 259 256 253 255 258 259 258 260 258 258 254 252 249 246 243 241 241 239 239 239 239 237 236 235 236 236 237 238 239 240 241 242 244 247 249 250 252 252 253 254 258
241 228 220 231 250 268 267 272 266 257 253 250 251 258 260 259 262 261 255 254 250 244 240 238 238 236 235 235 235 236 235 235 236 237 238 240 240 241 241 242 244 247 249 250 251 252 253 256 260
231 175 196 210 260 258 255 308 311 292 244 243 240 248 243 247 259 262 254 247 245 239 234 235 234 231 229 230 231 231 234 235 235 237 239 240 241 242 242 243 243 245 248 250 251 253 255 258 259
109 131 139 131 125 115 66 97 94 26 27 349 290 268 248 239 239 240 246 229 228 228 226 224 224 224 226 227 228 229 231 234 235 236 237 239 240 241 242 243 244 245 248 250 253 255 257 258 259
84 117 113 104 97 91 62 65 46 9 23 27 22 359 316 218 199 182 188 194 198 199 200 207 207 211 215 219 222 225 231 233 234 236 238 238 239 241 242 244 245 248 250 252 255 256 257 258 259
79 92 110 105 97 85 68 55 43 39 35 29 27 22 55 111 140 150 157 171 176 179 191 198 202 211 217 222 226 228 230 229 232 233 236 239 241 243 245 247 248 250 252 254 256 258 260 261 262
76 80 92 92 85 72 58 60 43 34 30 31 33 45 61 71 72 95 109 131 149 170 180 189 203 215 219 222 223 223 227 233 232 233 237 242 245 247 250 252 253 253 254 256 258 259 262 263 265
Height
5802 5805 5808 5811 5814 5816 5819 5823 5826 5829 5831 5833 5836 5838 5841 5843 5846 5849 5850 5851 5852 5854 5855 5857 5858 5860 5861 5863 5864 5865 5866 5867 5869 5870 5871 5872 5872 5873 5874 5874 5874 5874 5875 5875 5875 5875 5875 5875 5875
5794 5798 5801 5803 5806 5809 5812 5816 5819 5821 5824 5827 5829 5832 5834 5837 5839 5842 5844 5846 5848 5850 5851 5853 5855 5856 5858 5859 5861 5862 5863 5864 5865 5867 5868 5869 5870 5871 5871 5872 5872 5873 5873 5873 5873 5873 5873 5873 5873
5786 5789 5793 5796 5798 5803 5805 5809 5811 5813 5816 5819 5822 5824 5827 5831 5834 5836 5838 5840 5843 5845 5846 5848 5850 5852 5854 5856 5857 5858 5860 5861 5862 5863 5864 5865 5867 5868 5868 5869 5870 5870 5871 5871 5871 5871 5872 5872 5872
5779 5782 5785 5789 5792 5795 5797 5800 5802 5805 5808 5811 5814 5817 5820 5824 5827 5830 5832 5834 5837 5839 5841 5843 5845 5847 5849 5851 5853 5854 5856 5857 5858 5859 5861 5862 5863 5864 5865 5866 5867 5868 5868 5869 5869 5869 5870 5870 5870
5770 5774 5777 5781 5784 5786 5788 5791 5794 5797 5800 5803 5806 5809 5812 5816 5819 5822 5825 5828 5831 5833 5836 5838 5840 5842 5844 5846 5848 5850 5851 5853 5854 5855 5857 5858 5860 5861 5862 5863 5864 5865 5865 5866 5867 5867 5867 5867 5867
5763 5766 5770 5773 5776 5778 5780 5783 5786 5789 5792 5795 5798 5801 5804 5808 5811 5814 5818 5821 5823 5827 5829 5832 5834 5837 5839 5841 5843 5845 5846 5848 5849 5851 5852 5854 5855 5857 5858 5859 5860 5861 5862 5863 5864 5864 5864 5864 5865
5755 5758 5761 5765 5767 5770 5772 5774 5778 5780 5784 5787 5790 5793 5796 5800 5803 5806 5809 5813 5816 5819 5822 5825 5828 5830 5833 5835 5837 5839 5841 5843 5845 5846 5848 5849 5851 5852 5854 5855 5856 5857 5858 5859 5860 5860 5861 5861 5861
5746 5750 5753 5756 5759 5761 5764 5766 5769 5772 5775 5778 5781 5784 5788 5791 5794 5798 5801 5805 5808 5811 5815 5818 5820 5823 5826 5829 5831 5834 5836 5838 5839 5841 5843 5845 5846 5848 5849 5850 5852 5853 5854 5855 5856 5856 5857 5858 5858
5737 5742 5745 5748 5750 5753 5755 5758 5760 5763 5766 5769 5772 5775 5778 5782 5785 5789 5793 5796 5800 5803 5807 5810 5813 5816 5819 5822 5824 5827 5829 5832 5833 5835 5837 5839 5841 5842 5844 5845 5847 5848 5849 5850 5851 5852 5853 5853 5854
5728 5733 5736 5739 5741 5744 5746 5749 5752 5755 5757 5760 5762 5765 5768 5772 5776 5779 5783 5787 5791 5795 5798 5802 5805 5808 5811 5814 5817 5820 5822 5825 5827 5829 5831 5833 5835 5837 5838 5840 5841 5843 5844 5845 5846 5847 5848 5848 5849
5720 5724 5727 5730 5732 5735 5737 5740 5742 5745 5748 5750 5753 5756 5759 5762 5766 5770 5774 5777 5781 5785 5789 5793 5796 5799 5802 5806 5809 5812 5815 5818 5820 5823 5825 5827 5829 5831 5832 5834 5836 5837 5838 5840 5841 5841 5842 5843 5844
5712 5716 5718 5721 5723 5726 5728 5731 5733 5736 5738 5740 5743 5746 5749 5752 5756 5760 5764 5767 5771 5775 5779 5783 5787 5790 5793 5797 5800 5804 5807 5810 5813 5815 5818 5820 5822 5824 5826 5828 5829 5831 5832 5834 5835 5836 5837 5838 5838
5704 5707 5710 5712 5714 5717 5719 5721 5723 5726 5728 5730 5732 5735 5739 5742 5745 5749 5753 5757 5761 5765 5769 5772 5776 5780 5784 5787 5791 5795 5798 5801 5805 5808 5810 5813 5815 5817 5819 5821 5822 5824 5826 5827 5829 5830 5830 5831 5832
5696 5699 5701 5704 5706 5708 5710 5712 5714 5717 5717 5720 5722 5725 5728 5731 5734 5737 5741 5745 5749 5753 5757 5761 5765 5769 5773 5777 5781 5785 5789 5792 5796 5799 5802 5805 5807 5810 5812 5814 5815 5817 5819 5820 5822 5823 5824 5825 5826
5688 5692 5694 5696 5698 5700 5702 5705 5706 5707 5708 5710 5712 5714 5717 5719 5722 5726 5730 5733 5737 5742 5746 5750 5754 5758 5762 5766 5770 5774 5778 5782 5786 5790 5793 5796 5799 5801 5804 5806 5808 5810 5811 5813 5814 5816 5817 5818 5819
5682 5685 5687 5689 5691 5692 5696 5697 5697 5697 5699 5700 5702 5704 5706 5708 5711 5714 5717 5721 5725 5730 5734 5738 5742 5746 5750 5755 5759 5763 5767 5772 5776 5780 5783 5787 5790 5792 5795 5798 5800 5802 5803 5805 5807 5808 5809 5810 5811
5676 5679 5681 5683 5684 5685 5687 5689 5689 5688 5690 5691 5693 5694 5696 5698 5700 5703 5706 5709 5713 5717 5721 5725 5729 5734 5738 5742 5747 5751 5756 5761 5765 5769 5773 5777 5780 5783 5786 5789 5792 5793 5795 5797 5799 5800 5802 5803 5804
5672 5674 5675 5676 5677 5678 5680 5681 5681 5680 5681 5683 5683 5685 5686 5688 5690 5692 5694 5698 5701 5706 5709 5713 5717 5721 5725 5729 5734 5739 5744 5749 5754 5759 5763 5767 5770 5774 5777 5780 5782 5785 5787 5789 5791 5793 5794 5795 5796
5667 5668 5670 5671 5671 5673 5673 5673 5673 5672 5673 5674 5675 5676 5677 5678 5679 5681 5683 5686 5689 5693 5697 5701 5705 5708 5712 5716 5721 5726 5732 5738 5743 5748 5752 5756 5760 5764 5767 5770 5773 5776 5778 5780 5782 5784 5785 5786 5787
5663 5664 5665 5666 5666 5667 5667 5667 5666 5665 5665 5666 5666 5667 5668 5668 5669 5670 5672 5674 5678 5681 5685 5688 5692 5695 5699 5704 5708 5713 5719 5725 5731 5736 5741 5745 5750 5754 5757 5761 5763 5766 5769 5771 5773 5775 5776 5777 5778
5660 5661 5662 5662 5661 5661 5662 5661 5660 5659 5659 5659 5659 5659 5660 5660 5661 5662 5663 5664 5667 5670 5673 5677 5681 5684 5687 5691 5695 5701 5706 5712 5718 5724 5729 5734 5738 5742 5747 5750 5754 5756 5759 5762 5764 5766 5767 5769 5770
5657 5658 5658 5658 5658 5658 5658 5657 5656 5655 5654 5654 5653 5653 5653 5653 5654 5654 5655 5656 5657 5660 5663 5666 5670 5673 5676 5680 5685 5690 5695 5702 5708 5713 5718 5722 5727 5731 5736 5740 5743 5747 5750 5752 5755 5757 5758 5759 5760
5655 5655 5655 5655 5655 5655 5654 5654 5654 5652 5651 5650 5650 5649 5649 5649 5649 5648 5648 5649 5650 5651 5654 5656 5659 5662 5666 5670 5675 5680 5685 5691 5696 5701 5706 5711 5716 5720 5725 5730 5733 5736 5740 5742 5745 5747 5749 5749 5751
5653 5654 5654 5654 5653 5654 5652 5652 5651 5649 5648 5647 5647 5645 5645 5645 5644 5643 5643 5642 5643 5644 5645 5648 5650 5653 5657 5662 5666 5671 5676 5681 5686 5691 5695 5700 5705 5710 5715 5719 5723 5726 5729 5732 5735 5737 5738 5740 5741
5653 5654 5654 5653 5652 5652 5651 5650 5650 5647 5646 5645 5644 5643 5643 5642 5641 5640 5639 5638 5637 5638 5639 5641 5644 5647 5650 5655 5659 5663 5668 5673 5677 5682 5687 5691 5695 5700 5705 5709 5713 5716 5719 5722 5724 5726 5728 5730 5731
5652 5653 5654 5654 5652 5652 5650 5649 5649 5647 5645 5644 5643 5642 5641 5641 5640 5638 5637 5636 5635 5635 5636 5637 5639 5641 5645 5649 5653 5657 5661 5665 5670 5674 5678 5682 5686 5691 5695 5699 5703 5706 5709 5711 5714 5716 5718 5719 5720
5652 5652 5653 5653 5652 5651 5650 5649 5649 5647 5646 5644 5643 5642 5641 5640 5639 5637 5636 5635 5634 5633 5634 5634 5636 5638 5641 5644 5648 5651 5655 5659 5662 5666 5670 5674 5678 5682 5685 5689 5692 5696 5698 5701 5703 5706 5708 5709 5710
5653 5653 5653 5653 5652 5651 5651 5650 5649 5647 5646 5645 5643 5642 5641 5640 5638 5637 5636 5635 5634 5633 5633 5634 5635 5637 5639 5641 5645 5647 5650 5653 5655 5659 5662 5666 5669 5673 5676 5680 5683 5686 5688 5691 5693 5695 5696 5697 5698
5654 5653 5653 5653 5652 5652 5651 5653 5649 5648 5646 5645 5643 5642 5641 5640 5638 5637 5636 5635 5635 5634 5634 5634 5635 5637 5638 5640 5642 5644 5646 5648 5650 5653 5656 5659 5662 5665 5668 5671 5673 5676 5678 5680 5682 5684 5685 5686 5687
5654 5654 5654 5654 5653 5652 5652 5655 5649 5648 5647 5645 5644 5643 5642 5640 5639 5637 5636 5635 5635 5635 5635 5635 5635 5636 5637 5638 5639 5641 5643 5644 5646 5648 5651 5654 5656 5658 5660 5662 5664 5667 5669 5670 5672 5673 5674 5675 5675